Torna al catalogo

STARLINK-3247

AttivoComunicazioniVLEO
NORAD 49747·PAYLOAD·🇺🇸 United States

Lanciato Dec 2, 2021 da Cape Canaveral Space Force Station

Loading…

Prossimi Passaggi (prossime 24 ore)

TLE

AggiornatoSource: CelesTrak SupGP

Epoca: Sep 14, 2026, 21:35 UTC

1 49747C 21115Z   26257.89979167  .00003148  00000+0  17242-3 0  2570
2 49747  53.1633  17.9046 0001056  45.0658 310.9381 15.13712930    19

Traccia STARLINK-3247 in tempo reale con AllMySat

Download on the App Store